Location: �clusier
(49.9361°N, 2.7869°E)
Time: 12:43:34
(UTC+00:00)

Cosmos 2016 Rocket - Visible Passes

Search period start: 23 October 2021 00:00
Search period end: 02 November 2021 00:00
Orbit: 946 x 1001 km, 83.0° (Epoch: 22 October)

Date Brightness Start Highest point End Pass type
(mag) Time Alt. Az. Time Alt. Az. Time Alt. Az.
23 Oct 6.4 05:16:25 10° NNE 05:20:55 21° ENE 05:25:24 10° ESE visible
23 Oct 5.5 18:59:51 18° NE 18:59:51 18° NE 19:01:37 10° NNE visible
23 Oct 5.5 20:44:27 28° NNW 20:44:27 28° NNW 20:47:23 10° N visible
23 Oct 6.7 22:29:02 10° NW 22:29:02 10° NW 22:29:13 10° NW visible
24 Oct 5.8 05:40:43 10° N 05:46:11 33° ENE 05:51:38 10° SE visible
24 Oct 5.2 19:24:05 27° NNE 19:24:05 27° NNE 19:26:49 10° NNE visible
24 Oct 5.8 21:08:40 25° NNW 21:08:40 25° NNW 21:11:55 10° N visible
25 Oct 6.9 04:22:48 10° NE 04:24:22 11° NE 04:25:54 10° ENE visible
25 Oct 5.7 18:03:36 13° NE 18:03:36 13° NE 18:04:45 10° NE visible
25 Oct 4.8 19:48:10 38° NNE 19:48:10 38° NNE 19:51:47 10° N visible
25 Oct 6.2 21:32:44 19° NW 21:32:44 19° NW 21:36:10 10° NNW visible
26 Oct 6.5 04:45:51 10° NNE 04:49:54 18° ENE 04:53:55 10° E visible
26 Oct 5.1 18:27:25 23° ENE 18:27:25 23° ENE 18:30:35 10° NNE visible
26 Oct 4.7 20:11:57 47° NNW 20:11:57 47° NNW 20:16:35 10° N visible
26 Oct 6.6 21:56:29 12° WNW 21:57:19 12° NW 21:59:38 10° NNW visible
27 Oct 6.0 05:10:01 10° N 05:15:13 28° ENE 05:20:26 10° SE visible
27 Oct 4.2 18:44:18 10° SSE 18:50:23 44° E 18:55:52 10° NNE visible
27 Oct 5.2 20:29:56 10° SW 20:35:34 36° WNW 20:41:11 10° N visible
28 Oct 5.2 05:34:30 10° N 05:40:22 46° ENE 05:46:13 10° SE visible
28 Oct 5.4 17:27:47 10° ESE 17:30:33 13° ENE 17:33:17 10° NE visible
28 Oct 3.8 19:08:39 10° S 19:14:47 74° E 19:20:54 10° NNE visible
28 Oct 6.0 20:56:03 10° WSW 21:00:48 23° WNW 21:05:32 10° NNW visible
29 Oct 6.6 04:15:21 10° NNE 04:18:51 15° ENE 04:22:20 10° E visible
29 Oct 4.9 17:50:14 10° SE 17:54:52 23° E 17:59:28 10° NNE visible
29 Oct 4.1 19:33:29 10° SSW 19:39:37 69° WNW 19:45:45 10° N visible
29 Oct 6.5 21:23:04 10° W 21:26:13 14° NW 21:29:23 10° NNW visible
30 Oct 6.2 04:39:19 10° N 04:44:14 25° ENE 04:49:09 10° ESE visible
30 Oct 4.3 18:13:46 10° SSE 18:19:20 38° E 18:24:54 10° NNE visible
30 Oct 5.0 19:58:50 10° SW 20:04:38 42° WNW 20:10:25 10° N visible
31 Oct 5.4 05:03:44 10° N 05:09:26 39° ENE 05:15:09 10° SE visible
31 Oct 5.6 16:58:26 10° E 16:59:54 11° ENE 17:01:22 10° ENE visible
31 Oct 3.9 18:37:56 10° S 18:43:58 63° E 18:50:01 10° NNE visible
31 Oct 5.8 20:24:45 10° WSW 20:29:48 26° WNW 20:34:52 10° N visible
01 Nov 6.7 03:44:58 10° NNE 03:47:46 13° NE 03:50:34 10° E visible
01 Nov 4.5 05:28:22 10° N 05:34:28 64° ENE 05:40:34 10° SSE visible
01 Nov 5.1 17:20:01 10° ESE 17:24:09 19° E 17:28:19 10° NE visible
01 Nov 3.9 19:02:36 10° SSW 19:08:45 80° W 19:14:55 10° N visible
01 Nov 6.4 20:51:24 10° W 20:55:10 17° WNW 20:58:56 10° NNW visible
